Starlink 11537

operational
NORAD ID: 62911 Int'l Des: 2025-027 Owner: SPXS Country: US Constellation: starlink
LEOCIRCULAR

Starlink 11537について

説明を読み込み中...

リアルタイム位置

3D地球を読み込み中...

次回通過

高度履歴

Altitude vs Time

uPlot chart will show altitude changes over time

軌道要素

1 62911U 25027E 26034.49421528 .00283785 00000-0 21251-2 0 9991
2 62911 42.9984 193.8206 0001960 245.4282 114.6381 15.71011423 57819
Epoch: Feb 3, 2026 • Age: 19 hours

現在のステータス

高度 364.0 km
速度 7.69 km/s
衛星直下点 -36.46°S, 178.7°E
打ち上げ日 Feb 8, 2025
運用期間 0.9 years
タイプ internet

技術仕様

分類 Payload
質量 960.00 kg
乾燥質量 910.00 kg
総質量 960.00 kg
長さ 0.30 m
直径 4.10 m
スパン 29.00 m
形状 Box + pan
製造者 SPXS
バスタイプ Starlink V2MD
フェーズステータス In Orbit
所有者/国 SPXS/US

大規模コンステレーション

Loading constellations...